NORTHERN QUEENS  -  Air Quality Alert Air Quality Alert        SOUTHERN QUEENS  -  Air Quality Alert Air Quality Alert      

Active alerts

Northern Queens
  Details for Northern Queens Air Quality Alert
Southern Queens
  Details for Southern Queens Air Quality Alert


WXM80 ListenWXM80 Stop

You find our weather info also at:

UK Metoffice

WeatherCloud

Weather Underground

Northeastern Weather Network

AWEKAS

Citizen Weather Observer Program (CWOP)

HAMweather, WeatherForYou, PWS Weather


Weather Underground History page Text

Daily Summary for December 3, 2017 Units:  Metric    English   Both
« Previous Day
Next Day »
Daily Weekly Monthly Yearly Custom
  High: Low: Average:
Temperature: 9.4 °C 1.6 °C 5.3 °C
Dew Point: 5.7 °C 0 °C 3.1 °C
Humidity: 93 % 70 % 86 %
Wind Speed: 5 km/h 0 km/h 0.5 km/h
Wind Gust: 8 km/h - -
Wind:- - East
Pressure: 1026.3 hPa 1017.8 hPa -
Precipitation: 0 mm    
Historical Graphs
 
 
Tabular Data for December 3, 2017
Time Temperature Dew Point Pressure Wind Wind Speed Wind Gust Humidity Rainfall Rate (Hourly)
00:03 2.7 °C 0.9 °C 1024.3 hPa Calm     88 % 0 mm
00:08 2.7 °C 0.9 °C 1024.3 hPa Calm     88 % 0 mm
00:18 2.8 °C 1.1 °C 1024.3 hPa Calm     88 % 0 mm
00:28 2.9 °C 0.9 °C 1024.3 hPa Calm   1.6 km/h 87 % 0 mm
00:33 2.9 °C 0.9 °C 1024.3 hPa Calm     87 % 0 mm
00:38 2.9 °C 1 °C 1024.3 hPa South 0.2 km/h 1.9 km/h 87 % 0 mm
00:43 2.9 °C 1 °C 1023.9 hPa Calm     87 % 0 mm
00:48 3 °C 1.1 °C 1023.2 hPa Calm     87 % 0 mm
00:53 3 °C 1.1 °C 1023.6 hPa Calm   1.9 km/h 87 % 0 mm
00:58 3 °C 1.1 °C 1023.6 hPa Calm     87 % 0 mm
01:03 3.1 °C 1.1 °C 1023.6 hPa Calm     87 % 0 mm
01:08 3.1 °C 1.1 °C 1023.6 hPa Calm     87 % 0 mm
01:13 3.1 °C 1.1 °C 1023.2 hPa Calm     87 % 0 mm
01:19 3.1 °C 1.1 °C 1023.2 hPa Calm     87 % 0 mm
01:24 3.1 °C 1.1 °C 1023.6 hPa Calm     87 % 0 mm
01:29 3.1 °C 0.9 °C 1023.6 hPa Calm     86 % 0 mm
01:34 3 °C 0.9 °C 1023.2 hPa Calm     86 % 0 mm
01:39 2.9 °C 0.8 °C 1023.6 hPa Calm     86 % 0 mm
01:45 2.9 °C 0.8 °C 1023.6 hPa Calm     86 % 0 mm
02:00 2.8 °C 0.7 °C 1023.2 hPa Calm     86 % 0 mm
02:10 2.7 °C 0.6 °C 1023.2 hPa Calm     86 % 0 mm
02:40 2.4 °C 0.3 °C 1022.9 hPa Calm     86 % 0 mm
02:45 2.4 °C 0.3 °C 1022.9 hPa Calm     86 % 0 mm
02:50 2.3 °C 0.2 °C 1022.9 hPa Calm   1.9 km/h 86 % 0 mm
02:55 2.3 °C 0.3 °C 1022.9 hPa Calm     87 % 0 mm
03:06 2.2 °C 0.3 °C 1023.2 hPa Calm     87 % 0 mm
03:11 2.2 °C 0.3 °C 1023.2 hPa Calm     87 % 0 mm
03:16 2.2 °C 0.2 °C 1022.9 hPa Calm     87 % 0 mm
03:21 2.2 °C 0.2 °C 1023.2 hPa Calm     87 % 0 mm
03:31 2.1 °C 0.1 °C 1022.9 hPa Calm     87 % 0 mm
03:36 2.1 °C 0.1 °C 1022.9 hPa Calm     87 % 0 mm
03:41 2 °C 0.1 °C 1022.9 hPa Calm     87 % 0 mm
03:46 2 °C 0.1 °C 1022.9 hPa Calm     87 % 0 mm
03:52 1.9 °C 0 °C 1022.9 hPa Calm     87 % 0 mm
03:57 1.9 °C 0 °C 1022.9 hPa Calm     87 % 0 mm
04:02 1.9 °C 0.1 °C 1022.9 hPa Calm   1.9 km/h 88 % 0 mm
04:07 1.9 °C 0.1 °C 1022.9 hPa South 0.2 km/h 1.9 km/h 88 % 0 mm
04:12 1.8 °C 0.1 °C 1022.9 hPa Calm     88 % 0 mm
04:23 1.8 °C 0.1 °C 1022.9 hPa Calm     88 % 0 mm
04:28 1.8 °C 0.2 °C 1022.9 hPa Calm     89 % 0 mm
04:33 1.8 °C 0.2 °C 1023.2 hPa Calm   1.9 km/h 89 % 0 mm
04:38 1.8 °C 0.2 °C 1023.2 hPa Calm     89 % 0 mm
04:48 1.9 °C 0.3 °C 1022.9 hPa Calm     89 % 0 mm
04:53 1.9 °C 0.3 °C 1022.9 hPa Calm     89 % 0 mm
04:58 1.9 °C 0.3 °C 1022.9 hPa Calm     89 % 0 mm
05:04 1.9 °C 0.3 °C 1022.9 hPa Calm     89 % 0 mm
05:09 1.9 °C 0.3 °C 1022.9 hPa Calm     89 % 0 mm
05:14 1.9 °C 0.3 °C 1022.9 hPa Calm     89 % 0 mm
05:19 1.8 °C 0.2 °C 1022.9 hPa Calm     89 % 0 mm
05:24 1.8 °C 0.2 °C 1022.9 hPa Calm   1.9 km/h 89 % 0 mm
05:29 1.8 °C 0.2 °C 1023.2 hPa South 0.2 km/h 1.9 km/h 89 % 0 mm
05:34 1.8 °C 0.2 °C 1023.2 hPa Calm     89 % 0 mm
05:39 1.8 °C 0.2 °C 1023.2 hPa Calm     89 % 0 mm
05:44 1.8 °C 0.2 °C 1023.2 hPa Calm     89 % 0 mm
05:50 1.7 °C 0.1 °C 1023.6 hPa Calm     89 % 0 mm
05:55 1.7 °C 0.1 °C 1023.6 hPa Calm     89 % 0 mm
06:00 1.7 °C 0.3 °C 1023.6 hPa Calm     90 % 0 mm
06:05 1.7 °C 0.3 °C 1023.6 hPa Calm     90 % 0 mm
06:10 1.7 °C 0.3 °C 1023.6 hPa Calm     90 % 0 mm
06:15 1.7 °C 0.3 °C 1023.6 hPa Calm     90 % 0 mm
06:20 1.7 °C 0.3 °C 1023.6 hPa Calm     90 % 0 mm
06:25 1.7 °C 0.3 °C 1023.6 hPa Calm     90 % 0 mm
06:30 1.7 °C 0.3 °C 1023.9 hPa Calm     90 % 0 mm
06:35 1.7 °C 0.3 °C 1023.6 hPa Calm     90 % 0 mm
06:40 1.7 °C 0.3 °C 1023.6 hPa Calm     90 % 0 mm
06:46 1.7 °C 0.3 °C 1023.6 hPa Calm     90 % 0 mm
06:50 1.7 °C 0.3 °C 1023.6 hPa Calm     90 % 0 mm
06:56 1.7 °C 0.3 °C 1023.2 hPa Calm     90 % 0 mm
07:01 1.7 °C 0.3 °C 1023.6 hPa Calm     90 % 0 mm
07:06 1.7 °C 0.2 °C 1023.6 hPa Calm     90 % 0 mm
07:12 1.7 °C 0.2 °C 1023.2 hPa Calm     90 % 0 mm
07:17 1.6 °C 0.2 °C 1023.2 hPa Calm     90 % 0 mm
07:22 1.6 °C 0.2 °C 1023.2 hPa Calm     90 % 0 mm
07:27 1.6 °C 0.2 °C 1023.2 hPa Calm     90 % 0 mm
07:32 1.7 °C 0.2 °C 1023.2 hPa Calm     90 % 0 mm
07:37 1.7 °C 0.2 °C 1023.2 hPa Calm     90 % 0 mm
07:43 1.7 °C 0.3 °C 1023.6 hPa Calm   1.6 km/h 91 % 0 mm
07:48 1.7 °C 0.3 °C 1023.6 hPa Calm     91 % 0 mm
07:53 1.7 °C 0.4 °C 1023.6 hPa Calm     91 % 0 mm
07:58 1.8 °C 0.4 °C 1023.6 hPa Calm     91 % 0 mm
07:59 1.8 °C 0.4 °C 1023.6 hPa Calm     91 % 0 mm
08:04 1.8 °C 0.5 °C 1023.6 hPa Calm     91 % 0 mm
08:10 1.9 °C 0.8 °C 1023.6 hPa Calm     92 % 0 mm
08:15 1.9 °C 0.8 °C 1023.6 hPa Calm     92 % 0 mm
08:20 2 °C 0.8 °C 1023.6 hPa Calm     92 % 0 mm
08:25 2.1 °C 0.9 °C 1023.6 hPa Calm     92 % 0 mm
08:30 2.2 °C 1.1 °C 1023.6 hPa Calm     92 % 0 mm
08:35 2.3 °C 1.1 °C 1023.6 hPa Calm   1.9 km/h 92 % 0 mm
08:40 2.4 °C 1.4 °C 1023.6 hPa Calm   1.9 km/h 93 % 0 mm
08:45 2.6 °C 1.6 °C 1023.6 hPa Calm     93 % 0 mm
08:50 2.7 °C 1.7 °C 1023.6 hPa Calm     93 % 0 mm
08:55 2.9 °C 1.9 °C 1023.9 hPa Calm     93 % 0 mm
09:00 3.2 °C 2.2 °C 1023.9 hPa Calm     93 % 0 mm
09:05 3.4 °C 2.4 °C 1023.9 hPa Calm     93 % 0 mm
09:10 3.7 °C 2.7 °C 1023.9 hPa Calm     93 % 0 mm
09:15 3.9 °C 2.8 °C 1024.3 hPa Calm     92 % 0 mm
09:20 4.2 °C 2.9 °C 1024.3 hPa Calm     91 % 0 mm
09:25 4.6 °C 3.1 °C 1024.3 hPa North 0.2 km/h   90 % 0 mm
09:31 4.9 °C 3.4 °C 1023.9 hPa Calm   3.2 km/h 90 % 0 mm
09:36 5.2 °C 3.5 °C 1023.9 hPa North 3.2 km/h 4.8 km/h 89 % 0 mm
09:41 5.4 °C 3.5 °C 1023.9 hPa NE 1.6 km/h 6.4 km/h 87 % 0 mm
09:46 5.7 °C 3.4 °C 1023.9 hPa ENE 0.8 km/h 3.7 km/h 85 % 0 mm
09:51 5.9 °C 3.6 °C 1023.9 hPa Calm   3.2 km/h 85 % 0 mm
09:56 6.1 °C 3.6 °C 1024.3 hPa Calm   1.6 km/h 84 % 0 mm
10:01 6.2 °C 3.5 °C 1024.3 hPa Calm     83 % 0 mm
10:06 6.3 °C 3.4 °C 1024.3 hPa Calm     82 % 0 mm
10:11 6.4 °C 3.6 °C 1024.3 hPa Calm     82 % 0 mm
10:16 6.6 °C 3.7 °C 1024.3 hPa Calm     82 % 0 mm
10:21 6.7 °C 3.8 °C 1023.9 hPa ENE 0.2 km/h 1.9 km/h 82 % 0 mm
10:23 6.7 °C 3.6 °C 1023.9 hPa Calm     81 % 0 mm
10:28 6.8 °C 3.8 °C 1023.9 hPa ENE 0.2 km/h 1.6 km/h 81 % 0 mm
10:33 6.9 °C 3.7 °C 1023.6 hPa ENE 0.2 km/h 1.9 km/h 80 % 0 mm
10:38 7.1 °C 3.9 °C 1023.6 hPa ENE 1.4 km/h 3.7 km/h 80 % 0 mm
10:43 7.3 °C 3.9 °C 1023.2 hPa ENE 3.2 km/h 5.6 km/h 79 % 0 mm
10:48 7.4 °C 3.8 °C 1023.2 hPa ENE 2.6 km/h 5.6 km/h 78 % 0 mm
10:53 7.6 °C 3.8 °C 1023.2 hPa ENE 2.1 km/h 4.8 km/h 77 % 0 mm
10:58 7.7 °C 3.9 °C 1023.2 hPa ENE 2.6 km/h 4.8 km/h 77 % 0 mm
11:03 7.8 °C 3.8 °C 1023.2 hPa ENE 1.3 km/h 3.7 km/h 76 % 0 mm
11:08 7.9 °C 3.9 °C 1023.2 hPa ENE 1.6 km/h 3.7 km/h 76 % 0 mm
11:13 8 °C 3.8 °C 1023.2 hPa ENE 1 km/h 3.7 km/h 75 % 0 mm
11:18 8.1 °C 3.9 °C 1023.2 hPa ENE 1.4 km/h 3.7 km/h 75 % 0 mm
11:23 8.2 °C 3.8 °C 1023.2 hPa ENE 0.5 km/h 1.9 km/h 74 % 0 mm
11:28 8.3 °C 3.7 °C 1023.2 hPa ENE 3.5 km/h 6.4 km/h 73 % 0 mm
11:34 8.3 °C 3.7 °C 1023.2 hPa ENE 2.3 km/h 5.6 km/h 73 % 0 mm
11:39 8.3 °C 3.8 °C 1022.9 hPa ENE 2.9 km/h 5.6 km/h 73 % 0 mm
11:44 8.4 °C 3.9 °C 1022.9 hPa ENE 3.7 km/h 5.6 km/h 73 % 0 mm
11:49 8.6 °C 4 °C 1022.9 hPa ENE 2.7 km/h 5.6 km/h 73 % 0 mm
11:54 8.6 °C 3.8 °C 1022.9 hPa ENE 2.3 km/h 6.4 km/h 72 % 0 mm
11:59 8.6 °C 3.8 °C 1022.9 hPa ENE 4.3 km/h 6.4 km/h 72 % 0 mm
12:04 8.6 °C 4.1 °C 1022.9 hPa NE 4.2 km/h 5.6 km/h 73 % 0 mm
12:09 8.8 °C 4.2 °C 1022.9 hPa ENE 3.2 km/h 5.6 km/h 73 % 0 mm
12:14 8.9 °C 4.3 °C 1022.9 hPa East 3.2 km/h 5.6 km/h 73 % 0 mm
12:23 9.2 °C 4.2 °C 1022.6 hPa ENE 4.7 km/h 5.6 km/h 71 % 0 mm
12:28 9.2 °C 4 °C 1022.6 hPa NE 5 km/h 7.4 km/h 70 % 0 mm
12:33 9.3 °C 4.3 °C 1022.6 hPa ENE 4.5 km/h 7.4 km/h 71 % 0 mm
12:38 9.3 °C 4.3 °C 1022.2 hPa ENE 3.7 km/h 5.6 km/h 71 % 0 mm
12:43 9.4 °C 4.6 °C 1022.2 hPa ENE 2.4 km/h 5.6 km/h 72 % 0 mm
12:48 9.3 °C 4.1 °C 1022.2 hPa ENE 3.5 km/h 5.6 km/h 70 % 0 mm
12:53 9.3 °C 4.3 °C 1022.2 hPa ENE 3.7 km/h 5.6 km/h 71 % 0 mm
12:58 9.2 °C 4.4 °C 1022.2 hPa ENE 1.1 km/h 3.7 km/h 72 % 0 mm
13:03 9.3 °C 4.9 °C 1022.2 hPa NE 1.6 km/h 3.7 km/h 74 % 0 mm
13:08 9.3 °C 4.7 °C 1022.2 hPa ENE 4.7 km/h 7.4 km/h 73 % 0 mm
13:14 9.3 °C 4.7 °C 1022.2 hPa ENE 3.1 km/h 5.6 km/h 73 % 0 mm
13:19 9.3 °C 4.5 °C 1021.9 hPa ENE 2.9 km/h 5.6 km/h 72 % 0 mm
13:24 9.3 °C 4.5 °C 1022.2 hPa ENE 3.4 km/h 5.6 km/h 72 % 0 mm
13:29 9.3 °C 4.7 °C 1022.2 hPa ENE 2.4 km/h 5.6 km/h 73 % 0 mm
13:34 9.3 °C 4.9 °C 1021.9 hPa ENE 3.2 km/h 5.6 km/h 74 % 0 mm
13:39 9.2 °C 4.8 °C 1022.2 hPa NE 3.1 km/h 5.6 km/h 74 % 0 mm
13:44 9.2 °C 4.8 °C 1022.2 hPa ENE 2.9 km/h 6.4 km/h 74 % 0 mm
13:49 9.2 °C 4.8 °C 1022.2 hPa ENE 0.5 km/h 3.7 km/h 74 % 0 mm
13:54 9.2 °C 4.8 °C 1021.9 hPa ENE 3.2 km/h 5.6 km/h 74 % 0 mm
14:04 9.1 °C 4.7 °C 1021.9 hPa ENE 1.9 km/h 5.6 km/h 74 % 0 mm
14:09 9 °C 4.8 °C 1022.2 hPa North 0.8 km/h 3.7 km/h 75 % 0 mm
14:14 9 °C 4.8 °C 1022.2 hPa ENE 2.1 km/h 5.6 km/h 75 % 0 mm
14:19 8.9 °C 4.7 °C 1022.2 hPa Calm     75 % 0 mm
14:24 8.9 °C 4.7 °C 1022.2 hPa ENE 1.1 km/h 4.8 km/h 75 % 0 mm
14:29 8.8 °C 4.8 °C 1022.2 hPa ENE 0.5 km/h 1.9 km/h 76 % 0 mm
14:34 8.8 °C 4.8 °C 1022.6 hPa NNE 0.8 km/h   76 % 0 mm
14:39 8.8 °C 4.8 °C 1022.6 hPa NNE 0.3 km/h 1.9 km/h 76 % 0 mm
14:44 8.8 °C 4.8 °C 1022.6 hPa ENE 0.6 km/h 5.6 km/h 76 % 0 mm
14:49 8.7 °C 4.9 °C 1022.6 hPa NNE 0.5 km/h 3.7 km/h 77 % 0 mm
14:54 8.7 °C 4.8 °C 1022.6 hPa ENE 1.9 km/h 4.8 km/h 77 % 0 mm
15:00 8.7 °C 4.8 °C 1022.6 hPa Calm   5.6 km/h 77 % 0 mm
15:06 8.6 °C 4.8 °C 1022.6 hPa ENE 0.5 km/h 1.9 km/h 77 % 0 mm
15:11 8.6 °C 4.9 °C 1022.9 hPa ENE 1.1 km/h 1.9 km/h 78 % 0 mm
15:16 8.6 °C 4.9 °C 1022.6 hPa ENE 3.2 km/h 8 km/h 78 % 0 mm
15:21 8.5 °C 4.9 °C 1022.6 hPa ENE 1.6 km/h 4.8 km/h 78 % 0 mm
15:26 8.4 °C 4.8 °C 1022.9 hPa ENE 1.9 km/h 6.4 km/h 78 % 0 mm
15:31 8.4 °C 4.8 °C 1022.6 hPa ENE 3.2 km/h 4.8 km/h 78 % 0 mm
15:36 8.4 °C 5 °C 1022.6 hPa ENE 0.3 km/h 3.7 km/h 79 % 0 mm
15:41 8.4 °C 5.4 °C 1022.6 hPa ENE 2.9 km/h 5.6 km/h 81 % 0 mm
15:48 8.4 °C 5.7 °C 1022.6 hPa Calm     83 % 0 mm
15:53 8.3 °C 5.6 °C 1022.6 hPa Calm     83 % 0 mm
15:58 8.3 °C 5.6 °C 1022.6 hPa Calm     83 % 0 mm
16:03 8.2 °C 5.7 °C 1022.6 hPa Calm     84 % 0 mm
16:08 8.2 °C 5.6 °C 1022.9 hPa Calm     84 % 0 mm
16:13 8.1 °C 5.6 °C 1022.6 hPa Calm     84 % 0 mm
16:18 8.1 °C 5.5 °C 1022.9 hPa Calm     84 % 0 mm
16:23 8 °C 5.4 °C 1022.9 hPa Calm     84 % 0 mm
16:28 8 °C 5.4 °C 1022.9 hPa Calm     84 % 0 mm
16:33 7.9 °C 5.4 °C 1022.9 hPa Calm     84 % 0 mm
16:39 7.9 °C 5.3 °C 1023.2 hPa Calm     84 % 0 mm
16:44 7.8 °C 5.3 °C 1023.2 hPa Calm     84 % 0 mm
16:49 7.8 °C 5.3 °C 1023.2 hPa Calm     84 % 0 mm
16:54 7.8 °C 5.4 °C 1023.2 hPa Calm     85 % 0 mm
16:59 7.7 °C 5.3 °C 1023.2 hPa Calm     85 % 0 mm
17:04 7.7 °C 5.3 °C 1023.2 hPa Calm     85 % 0 mm
17:09 7.7 °C 5.5 °C 1023.2 hPa Calm     86 % 0 mm
17:14 7.6 °C 5.4 °C 1023.2 hPa Calm     86 % 0 mm
17:19 7.6 °C 5.4 °C 1023.2 hPa Calm     86 % 0 mm
17:24 7.6 °C 5.4 °C 1023.2 hPa Calm     86 % 0 mm
17:29 7.5 °C 5.3 °C 1023.2 hPa Calm     86 % 0 mm
17:34 7.4 °C 5.2 °C 1023.2 hPa Calm     86 % 0 mm
17:39 7.3 °C 5.1 °C 1023.2 hPa Calm     86 % 0 mm
17:44 7.2 °C 5.2 °C 1023.2 hPa Calm     87 % 0 mm
17:49 7.1 °C 5.1 °C 1023.6 hPa Calm     87 % 0 mm
17:54 7 °C 5 °C 1023.6 hPa Calm     87 % 0 mm
17:59 6.9 °C 4.9 °C 1023.6 hPa Calm     87 % 0 mm
18:04 6.8 °C 4.8 °C 1023.6 hPa Calm     87 % 0 mm
18:09 6.8 °C 4.8 °C 1023.9 hPa Calm     87 % 0 mm
18:14 6.8 °C 4.8 °C 1023.9 hPa Calm     87 % 0 mm
18:20 6.7 °C 4.9 °C 1023.9 hPa Calm     88 % 0 mm
18:25 6.7 °C 4.8 °C 1023.9 hPa Calm     88 % 0 mm
18:30 6.7 °C 4.8 °C 1023.9 hPa Calm     88 % 0 mm
18:35 6.6 °C 4.8 °C 1023.9 hPa Calm     88 % 0 mm
18:40 6.6 °C 4.8 °C 1023.9 hPa Calm     88 % 0 mm
18:45 6.6 °C 4.9 °C 1023.9 hPa Calm     89 % 0 mm
18:50 6.6 °C 4.9 °C 1023.9 hPa Calm     89 % 0 mm
18:55 6.6 °C 4.9 °C 1023.9 hPa Calm     89 % 0 mm
19:00 6.5 °C 4.8 °C 1023.9 hPa Calm     89 % 0 mm
19:05 6.5 °C 4.8 °C 1023.9 hPa Calm     89 % 0 mm
19:10 6.5 °C 4.8 °C 1024.3 hPa Calm     89 % 0 mm
19:15 6.5 °C 5 °C 1024.3 hPa Calm     90 % 0 mm
19:20 6.5 °C 5 °C 1024.3 hPa Calm     90 % 0 mm
19:25 6.5 °C 5 °C 1024.3 hPa Calm     90 % 0 mm
19:30 6.5 °C 5.1 °C 1024.3 hPa Calm     91 % 0 mm
19:35 6.5 °C 5.1 °C 1024.3 hPa Calm     91 % 0 mm
19:40 6.5 °C 5.1 °C 1024.3 hPa Calm     91 % 0 mm
19:45 6.4 °C 4.9 °C 1024.6 hPa Calm     90 % 0 mm
19:50 6.4 °C 4.9 °C 1024.3 hPa Calm     90 % 0 mm
19:55 6.4 °C 4.9 °C 1024.6 hPa Calm     90 % 0 mm
20:00 6.4 °C 4.9 °C 1024.6 hPa Calm     90 % 0 mm
20:05 6.3 °C 4.8 °C 1024.3 hPa Calm     90 % 0 mm
20:10 6.3 °C 4.8 °C 1024.6 hPa Calm     90 % 0 mm
20:15 6.3 °C 4.8 °C 1024.6 hPa Calm     90 % 0 mm
20:16 6.3 °C 4.8 °C 1024.3 hPa Calm     90 % 0 mm
20:21 6.3 °C 4.8 °C 1024.6 hPa Calm     90 % 0 mm
20:26 6.3 °C 4.8 °C 1024.6 hPa Calm     90 % 0 mm
20:31 6.3 °C 4.8 °C 1024.6 hPa Calm     90 % 0 mm
20:37 6.2 °C 4.7 °C 1024.6 hPa Calm     90 % 0 mm
20:42 6.2 °C 4.7 °C 1024.6 hPa Calm     90 % 0 mm
20:47 6.2 °C 4.7 °C 1024.9 hPa Calm     90 % 0 mm
20:52 6.1 °C 4.6 °C 1024.9 hPa Calm     90 % 0 mm
20:57 6.1 °C 4.6 °C 1024.9 hPa Calm     90 % 0 mm
21:02 6 °C 4.5 °C 1024.9 hPa Calm     90 % 0 mm
21:07 5.9 °C 4.4 °C 1024.9 hPa Calm     90 % 0 mm
21:12 5.9 °C 4.4 °C 1024.9 hPa Calm     90 % 0 mm
21:17 5.8 °C 4.3 °C 1025.3 hPa Calm     90 % 0 mm
21:22 5.8 °C 4.3 °C 1025.3 hPa Calm     90 % 0 mm
21:27 5.8 °C 4.3 °C 1025.3 hPa Calm     90 % 0 mm
21:32 5.7 °C 4.2 °C 1025.3 hPa Calm     90 % 0 mm
21:37 5.7 °C 4.2 °C 1025.3 hPa Calm     90 % 0 mm
21:42 5.6 °C 4.1 °C 1025.3 hPa Calm     90 % 0 mm
21:47 5.6 °C 4.1 °C 1025.3 hPa Calm     90 % 0 mm
21:52 5.5 °C 4 °C 1025.3 hPa Calm     90 % 0 mm
21:57 5.4 °C 3.9 °C 1025.3 hPa Calm     90 % 0 mm
22:02 5.4 °C 3.9 °C 1025.6 hPa Calm     90 % 0 mm
22:07 5.3 °C 3.8 °C 1025.3 hPa Calm     90 % 0 mm
22:13 5.3 °C 3.8 °C 1025.6 hPa Calm     90 % 0 mm
22:18 5.2 °C 3.7 °C 1017.8 hPa Calm     90 % 0 mm
22:19 5.2 °C 3.7 °C 1025.6 hPa Calm     90 % 0 mm
22:21 5.2 °C 3.8 °C 1025.6 hPa Calm     91 % 0 mm
22:23 5.2 °C 3.8 °C 1017.8 hPa Calm     91 % 0 mm
22:26 5.1 °C 3.8 °C 1025.6 hPa Calm     91 % 0 mm
22:27 5.1 °C 3.8 °C 1018.2 hPa Calm     91 % 0 mm
22:31 5.1 °C 3.6 °C 1025.6 hPa Calm     90 % 0 mm
22:36 5 °C 3.5 °C 1025.6 hPa Calm     90 % 0 mm
22:37 4.9 °C 3.4 °C 1026 hPa Calm     90 % 0 mm
22:42 4.9 °C 3.4 °C 1026 hPa Calm     90 % 0 mm
22:43 4.9 °C 3.4 °C 1026 hPa Calm     90 % 0 mm
22:48 4.8 °C 3.3 °C 1025.6 hPa Calm     90 % 0 mm
22:53 4.7 °C 3.2 °C 1026 hPa Calm     90 % 0 mm
22:58 4.6 °C 3.1 °C 1025.6 hPa Calm     90 % 0 mm
23:03 4.5 °C 3 °C 1025.6 hPa Calm     90 % 0 mm
23:08 4.4 °C 2.9 °C 1026 hPa Calm     90 % 0 mm
23:13 4.3 °C 2.8 °C 1026 hPa Calm     90 % 0 mm
23:24 4.2 °C 2.8 °C 1026 hPa Calm     91 % 0 mm
23:29 4.1 °C 2.7 °C 1026 hPa Calm   1.6 km/h 91 % 0 mm
23:34 3.9 °C 2.6 °C 1026.3 hPa ENE 0.3 km/h 1.9 km/h 91 % 0 mm
23:39 3.8 °C 2.5 °C 1026.3 hPa Calm     91 % 0 mm
23:44 3.8 °C 2.4 °C 1026.3 hPa Calm     91 % 0 mm
23:49 3.7 °C 2.4 °C 1026.3 hPa Calm     91 % 0 mm
23:54 3.6 °C 2.3 °C 1026.3 hPa Calm     91 % 0 mm
23:59 3.6 °C 2.2 °C 1026.3 hPa Calm     91 % 0 mm
Crab Meadow Weather
Compliments of Weather Underground - 2.75 mb

Script developed by  Jim McMurry - jmcmurry@mwt.net Adapted for the template by  Wim van der Kuil - Leuven-Template.eu

Weather Terms: Watch - A watch is used when the risk of a hazardous weather or hydrologic event has increased significantly, but its occurrence, location or timing is still uncertain. It is intended to provide enough lead time so those who need to set their plans in motion can do so. A watch means that hazardous weather is possible. People should have a plan of action in case a storm threatens and they should listen for later information and possible warnings especially when planning travel or outdoor activities.